Time,TemperatureF,DewpointF,PressureIn,WindDirection,WindDirectionDegrees,WindSpeedMPH,WindSpeedGustMPH,Humidity,HourlyPrecipIn,Conditions,Clouds,dailyrainin,SoftwareType,DateUTC
2013-05-08 00:01:00,54.7,44.8,29.99,NE,45,4.3,9.6,69,0.00,,,0.00,WUHU21623XXSP,2013-05-08 04:01:00,
2013-05-08 00:07:00,54.5,44.6,29.99,ENE,61,6.2,11.9,69,0.00,,,0.00,WUHU21623XXSP,2013-05-08 04:07:00,
2013-05-08 00:13:00,54.3,44.4,29.99,NNE,22,7.4,9.6,69,0.00,,,0.00,WUHU21623XXSP,2013-05-08 04:13:00,
2013-05-08 00:18:00,54.3,44.4,29.98,NE,53,5.4,11.0,69,0.00,,,0.00,WUHU21623XXSP,2013-05-08 04:18:00,
2013-05-08 00:24:00,54.3,44.7,29.98,NE,39,4.0,11.0,70,0.00,,,0.00,WUHU21623XXSP,2013-05-08 04:24:00,
2013-05-08 00:29:00,54.3,44.7,29.98,NE,45,5.1,8.5,70,0.00,,,0.00,WUHU21623XXSP,2013-05-08 04:29:00,
2013-05-08 00:34:00,54.1,44.5,29.98,NNE,30,5.8,11.2,70,0.00,,,0.00,WUHU21623XXSP,2013-05-08 04:34:00,
2013-05-08 00:40:00,54.1,44.5,29.98,North,0,5.1,12.5,70,0.00,,,0.00,WUHU21623XXSP,2013-05-08 04:40:00,
2013-05-08 00:45:00,54.1,44.5,29.98,NE,45,9.8,9.8,70,0.00,,,0.00,WUHU21623XXSP,2013-05-08 04:45:00,
2013-05-08 00:53:00,54.1,44.5,29.97,NE,40,4.6,13.2,70,0.00,,,0.00,WUHU21623XXSP,2013-05-08 04:53:00,
2013-05-08 00:59:00,54.1,44.5,29.97,NE,53,5.5,13.2,70,0.00,,,0.00,WUHU21623XXSP,2013-05-08 04:59:00,
2013-05-08 01:05:00,54.1,44.5,29.97,NNE,28,3.9,10.5,70,0.00,,,0.00,WUHU21623XXSP,2013-05-08 05:05:00,
2013-05-08 01:10:00,54.1,44.5,29.97,NE,48,5.5,8.7,70,0.00,,,0.00,WUHU21623XXSP,2013-05-08 05:10:00,
2013-05-08 01:15:00,54.1,44.5,29.97,NE,41,5.1,9.8,70,0.00,,,0.00,WUHU21623XXSP,2013-05-08 05:15:00,
2013-05-08 01:20:00,54.1,44.5,29.97,NE,45,4.0,9.8,70,0.00,,,0.00,WUHU21623XXSP,2013-05-08 05:20:00,
2013-05-08 01:25:00,54.1,44.5,29.97,NE,37,2.5,6.3,70,0.00,,,0.00,WUHU21623XXSP,2013-05-08 05:25:00,
2013-05-08 01:30:00,54.1,44.5,29.96,NE,45,3.5,13.6,70,0.00,,,0.00,WUHU21623XXSP,2013-05-08 05:30:00,
2013-05-08 01:35:00,54.1,44.5,29.97,NE,39,2.1,13.6,70,0.00,,,0.00,WUHU21623XXSP,2013-05-08 05:35:00,
2013-05-08 01:40:00,54.0,44.7,29.96,North,1,2.8,6.0,70,0.00,,,0.00,WUHU21623XXSP,2013-05-08 05:40:00,
2013-05-08 01:45:00,54.0,44.7,29.96,East,81,5.1,6.0,70,0.00,,,0.00,WUHU21623XXSP,2013-05-08 05:45:00,
2013-05-08 01:50:00,54.0,44.7,29.96,NNE,13,3.0,5.6,70,0.00,,,0.00,WUHU21623XXSP,2013-05-08 05:50:00,
2013-05-08 01:55:00,54.0,44.7,29.96,NE,45,0.0,5.6,70,0.00,,,0.00,WUHU21623XXSP,2013-05-08 05:55:00,
2013-05-08 02:00:00,54.0,44.7,29.95,ENE,67,4.9,4.9,70,0.00,,,0.00,WUHU21623XXSP,2013-05-08 06:00:00,
2013-05-08 02:05:00,54.0,44.7,29.95,ENE,67,4.9,4.9,70,0.00,,,0.00,WUHU21623XXSP,2013-05-08 06:05:00,
2013-05-08 02:10:00,54.0,44.7,29.95,NE,45,8.9,8.9,70,0.00,,,0.00,WUHU21623XXSP,2013-05-08 06:10:00,
2013-05-08 02:15:00,54.0,44.7,29.95,NE,45,9.4,9.4,70,0.00,,,0.00,WUHU21623XXSP,2013-05-08 06:15:00,
2013-05-08 02:20:00,54.0,44.7,29.95,NE,45,0.0,9.4,70,0.00,,,0.00,WUHU21623XXSP,2013-05-08 06:20:00,
2013-05-08 02:25:00,54.0,44.7,29.95,NE,45,4.7,6.9,70,0.00,,,0.00,WUHU21623XXSP,2013-05-08 06:25:00,
2013-05-08 02:31:00,54.0,44.7,29.95,ENE,62,4.6,6.9,70,0.00,,,0.00,WUHU21623XXSP,2013-05-08 06:31:00,
2013-05-08 02:36:00,54.0,44.7,29.95,ENE,67,1.1,6.9,70,0.00,,,0.00,WUHU21623XXSP,2013-05-08 06:36:00,
2013-05-08 02:41:00,54.0,44.7,29.95,NE,45,4.0,5.4,70,0.00,,,0.00,WUHU21623XXSP,2013-05-08 06:41:00,
2013-05-08 02:46:00,54.1,44.8,29.95,NE,45,4.3,7.4,70,0.00,,,0.00,WUHU21623XXSP,2013-05-08 06:46:00,
2013-05-08 02:51:00,54.1,44.8,29.95,NE,45,0.0,7.4,70,0.00,,,0.00,WUHU21623XXSP,2013-05-08 06:51:00,
2013-05-08 02:56:00,54.1,44.8,29.95,NE,45,3.5,5.8,70,0.00,,,0.00,WUHU21623XXSP,2013-05-08 06:56:00,
2013-05-08 03:01:00,54.1,44.8,29.95,NE,45,1.8,5.8,70,0.00,,,0.00,WUHU21623XXSP,2013-05-08 07:01:00,
2013-05-08 03:10:00,54.1,44.8,29.95,NE,45,0.0,0.0,70,0.00,,,0.00,WUHU21623XXSP,2013-05-08 07:10:00,
2013-05-08 03:15:00,54.1,44.8,29.95,ENE,59,1.8,3.4,70,0.00,,,0.00,WUHU21623XXSP,2013-05-08 07:15:00,
2013-05-08 03:20:00,54.1,44.8,29.95,NE,45,4.5,5.6,70,0.00,,,0.00,WUHU21623XXSP,2013-05-08 07:20:00,
2013-05-08 03:25:00,54.1,44.8,29.96,NNW,337,0.0,11.2,70,0.00,,,0.00,WUHU21623XXSP,2013-05-08 07:25:00,
2013-05-08 03:31:00,53.8,44.5,29.96,West,270,0.0,11.2,70,0.00,,,0.00,WUHU21623XXSP,2013-05-08 07:31:00,
2013-05-08 03:37:00,53.2,43.9,29.97,North,0,0.0,0.0,70,0.00,,,0.00,WUHU21623XXSP,2013-05-08 07:37:00,
2013-05-08 03:43:00,52.7,43.4,29.96,North,0,0.0,0.0,70,0.00,,,0.00,WUHU21623XXSP,2013-05-08 07:43:00,
2013-05-08 03:48:00,52.3,43.1,29.96,ENE,67,0.0,7.6,70,0.00,,,0.00,WUHU21623XXSP,2013-05-08 07:48:00,
2013-05-08 03:54:00,52.2,42.7,29.96,SSE,157,0.0,7.6,70,0.00,,,0.00,WUHU21623XXSP,2013-05-08 07:54:00,
2013-05-08 03:59:00,52.0,42.5,29.96,SE,135,0.0,0.0,70,0.00,,,0.00,WUHU21623XXSP,2013-05-08 07:59:00,
2013-05-08 04:04:00,51.8,42.3,29.96,SE,135,0.0,0.0,70,0.00,,,0.00,WUHU21623XXSP,2013-05-08 08:04:00,
2013-05-08 04:09:00,51.6,42.4,29.95,SE,135,0.0,0.0,70,0.00,,,0.00,WUHU21623XXSP,2013-05-08 08:09:00,
2013-05-08 04:14:00,51.4,42.2,29.95,ENE,67,0.0,0.0,70,0.00,,,0.00,WUHU21623XXSP,2013-05-08 08:14:00,
2013-05-08 04:20:00,51.3,42.1,29.95,ENE,67,0.0,0.0,70,0.00,,,0.00,WUHU21623XXSP,2013-05-08 08:20:00,
2013-05-08 04:25:00,50.9,41.7,29.95,ENE,67,0.0,0.0,70,0.00,,,0.00,WUHU21623XXSP,2013-05-08 08:25:00,
2013-05-08 04:31:00,50.5,41.3,29.96,ENE,67,0.0,0.0,70,0.00,,,0.00,WUHU21623XXSP,2013-05-08 08:31:00,
2013-05-08 04:37:00,50.5,41.3,29.96,ENE,67,0.0,0.0,70,0.00,,,0.00,WUHU21623XXSP,2013-05-08 08:37:00,
2013-05-08 04:42:00,50.5,41.3,29.96,ENE,67,0.0,0.0,70,0.00,,,0.00,WUHU21623XXSP,2013-05-08 08:42:00,
2013-05-08 04:48:00,50.5,41.3,29.96,ENE,67,0.0,0.0,70,0.00,,,0.00,WUHU21623XXSP,2013-05-08 08:48:00,
2013-05-08 04:53:00,50.7,41.5,29.96,ENE,67,0.0,0.0,70,0.00,,,0.00,WUHU21623XXSP,2013-05-08 08:53:00,
2013-05-08 04:59:00,50.7,41.5,29.96,ENE,67,0.0,0.0,70,0.00,,,0.00,WUHU21623XXSP,2013-05-08 08:59:00,
2013-05-08 05:04:00,50.7,41.5,29.96,ENE,67,0.0,0.0,70,0.00,,,0.00,WUHU21623XXSP,2013-05-08 09:04:00,
2013-05-08 05:09:00,50.9,41.7,29.96,NE,45,0.0,0.0,70,0.00,,,0.00,WUHU21623XXSP,2013-05-08 09:09:00,
2013-05-08 05:14:00,50.9,41.7,29.96,NE,45,0.0,0.0,70,0.00,,,0.00,WUHU21623XXSP,2013-05-08 09:14:00,
2013-05-08 05:19:00,50.9,41.7,29.96,NE,45,0.0,0.0,70,0.00,,,0.00,WUHU21623XXSP,2013-05-08 09:19:00,
2013-05-08 05:24:00,50.9,41.7,29.96,NE,45,0.0,0.0,70,0.00,,,0.00,WUHU21623XXSP,2013-05-08 09:24:00,
2013-05-08 05:29:00,50.9,41.7,29.96,NE,45,0.0,0.0,70,0.00,,,0.00,WUHU21623XXSP,2013-05-08 09:29:00,
2013-05-08 05:34:00,50.9,41.7,29.96,NNE,22,0.0,0.0,70,0.00,,,0.00,WUHU21623XXSP,2013-05-08 09:34:00,
2013-05-08 05:39:00,50.9,41.7,29.96,NE,45,0.0,0.0,70,0.00,,,0.00,WUHU21623XXSP,2013-05-08 09:39:00,
2013-05-08 05:44:00,51.1,41.9,29.97,NNE,22,0.0,0.0,70,0.00,,,0.00,WUHU21623XXSP,2013-05-08 09:44:00,
2013-05-08 05:49:00,51.1,41.9,29.96,NNE,22,0.0,0.0,70,0.00,,,0.00,WUHU21623XXSP,2013-05-08 09:49:00,
2013-05-08 05:54:00,51.1,41.9,29.97,NNE,22,0.0,0.0,70,0.00,,,0.00,WUHU21623XXSP,2013-05-08 09:54:00,
2013-05-08 05:59:00,51.3,42.1,29.97,South,180,0.0,0.0,70,0.00,,,0.00,WUHU21623XXSP,2013-05-08 09:59:00,
2013-05-08 06:04:00,51.4,42.5,29.97,SE,135,0.0,0.0,71,0.00,,,0.00,WUHU21623XXSP,2013-05-08 10:04:00,
2013-05-08 06:09:00,51.4,42.5,29.97,ENE,67,0.0,0.0,71,0.00,,,0.00,WUHU21623XXSP,2013-05-08 10:09:00,
2013-05-08 06:14:00,51.4,42.5,29.97,ENE,67,0.0,0.0,71,0.00,,,0.00,WUHU21623XXSP,2013-05-08 10:14:00,
2013-05-08 06:20:00,51.3,42.4,29.97,ENE,67,0.0,0.0,71,0.00,,,0.00,WUHU21623XXSP,2013-05-08 10:20:00,
2013-05-08 06:25:00,51.1,42.2,29.97,ENE,67,0.0,0.0,71,0.00,,,0.00,WUHU21623XXSP,2013-05-08 10:25:00,
2013-05-08 06:30:00,51.1,42.2,29.97,ENE,67,0.0,0.0,71,0.00,,,0.00,WUHU21623XXSP,2013-05-08 10:30:00,
2013-05-08 06:36:00,50.9,42.0,29.97,NE,45,0.0,0.0,71,0.00,,,0.00,WUHU21623XXSP,2013-05-08 10:36:00,
2013-05-08 06:41:00,50.9,42.0,29.97,NE,45,0.0,0.0,71,0.00,,,0.00,WUHU21623XXSP,2013-05-08 10:41:00,
2013-05-08 06:46:00,51.1,42.2,29.98,NNE,22,0.0,0.0,71,0.00,,,0.00,WUHU21623XXSP,2013-05-08 10:46:00,
2013-05-08 06:52:00,51.4,42.5,29.98,ENE,67,0.0,0.0,71,0.00,,,0.00,WUHU21623XXSP,2013-05-08 10:52:00,
2013-05-08 06:57:00,51.6,42.7,29.98,ENE,67,0.0,0.0,71,0.00,,,0.00,WUHU21623XXSP,2013-05-08 10:57:00,
2013-05-08 07:02:00,51.6,42.7,29.98,ENE,67,0.0,0.0,71,0.00,,,0.00,WUHU21623XXSP,2013-05-08 11:02:00,
2013-05-08 07:08:00,51.6,42.7,29.98,ENE,67,0.0,0.0,71,0.00,,,0.00,WUHU21623XXSP,2013-05-08 11:08:00,
2013-05-08 07:13:00,51.6,42.7,29.98,ENE,67,0.0,0.0,71,0.00,,,0.00,WUHU21623XXSP,2013-05-08 11:13:00,
2013-05-08 07:18:00,52.0,43.1,29.98,ENE,67,0.0,0.0,71,0.00,,,0.00,WUHU21623XXSP,2013-05-08 11:18:00,
2013-05-08 07:23:00,52.3,43.4,29.98,NE,45,0.0,0.0,71,0.00,,,0.00,WUHU21623XXSP,2013-05-08 11:23:00,
2013-05-08 07:28:00,52.9,43.9,29.98,ENE,67,0.0,0.0,71,0.00,,,0.00,WUHU21623XXSP,2013-05-08 11:28:00,
2013-05-08 07:33:00,53.2,44.2,29.98,NE,45,0.0,0.0,71,0.00,,,0.00,WUHU21623XXSP,2013-05-08 11:33:00,
2013-05-08 07:38:00,53.4,44.4,29.98,NE,45,0.0,1.1,71,0.00,,,0.00,WUHU21623XXSP,2013-05-08 11:38:00,
2013-05-08 07:44:00,53.4,44.4,29.98,ENE,67,0.0,1.1,71,0.00,,,0.00,WUHU21623XXSP,2013-05-08 11:44:00,
2013-05-08 07:49:00,53.4,44.4,29.98,ENE,67,0.0,0.0,71,0.00,,,0.00,WUHU21623XXSP,2013-05-08 11:49:00,
2013-05-08 07:54:00,53.4,44.4,29.98,ENE,67,0.0,0.0,71,0.00,,,0.00,WUHU21623XXSP,2013-05-08 11:54:00,
2013-05-08 07:59:00,53.4,44.4,29.99,ENE,67,0.0,0.0,71,0.00,,,0.00,WUHU21623XXSP,2013-05-08 11:59:00,
2013-05-08 08:04:00,53.4,44.4,29.99,NE,45,0.0,0.0,71,0.00,,,0.00,WUHU21623XXSP,2013-05-08 12:04:00,
2013-05-08 08:09:00,53.4,44.4,29.99,ENE,67,0.0,0.0,71,0.00,,,0.00,WUHU21623XXSP,2013-05-08 12:09:00,
2013-05-08 08:14:00,53.4,44.4,29.99,NE,45,0.0,0.0,71,0.00,,,0.00,WUHU21623XXSP,2013-05-08 12:14:00,
2013-05-08 08:19:00,53.4,44.4,30.00,ENE,67,0.0,0.0,71,0.00,,,0.00,WUHU21623XXSP,2013-05-08 12:19:00,
2013-05-08 08:24:00,53.4,44.4,30.00,ENE,67,0.0,0.0,71,0.00,,,0.00,WUHU21623XXSP,2013-05-08 12:24:00,
2013-05-08 08:30:00,53.8,45.1,30.00,NNE,22,0.0,0.0,72,0.00,,,0.00,WUHU21623XXSP,2013-05-08 12:30:00,
2013-05-08 08:36:00,53.8,45.1,30.00,ENE,67,0.0,0.0,72,0.00,,,0.00,WUHU21623XXSP,2013-05-08 12:36:00,
2013-05-08 08:42:00,53.8,45.1,30.00,NE,45,0.0,0.0,72,0.00,,,0.00,WUHU21623XXSP,2013-05-08 12:42:00,
2013-05-08 08:47:00,54.0,45.0,29.99,NE,45,0.0,0.0,71,0.00,,,0.00,WUHU21623XXSP,2013-05-08 12:47:00,
2013-05-08 08:52:00,54.1,45.1,29.99,NE,45,0.0,5.1,71,0.00,,,0.00,WUHU21623XXSP,2013-05-08 12:52:00,
2013-05-08 08:57:00,54.3,45.3,30.00,NE,45,0.0,5.1,71,0.00,,,0.00,WUHU21623XXSP,2013-05-08 12:57:00,
2013-05-08 09:02:00,55.0,46.0,29.99,NW,315,0.0,1.6,71,0.00,,,0.00,WUHU21623XXSP,2013-05-08 13:02:00,
2013-05-08 09:07:00,55.6,46.5,29.99,NE,45,0.0,0.0,71,0.00,,,0.00,WUHU21623XXSP,2013-05-08 13:07:00,
2013-05-08 09:12:00,56.1,47.0,29.99,NE,45,0.0,0.0,71,0.00,,,0.00,WUHU21623XXSP,2013-05-08 13:12:00,
2013-05-08 09:17:00,56.5,47.1,29.99,NE,45,3.7,4.9,70,0.00,,,0.00,WUHU21623XXSP,2013-05-08 13:17:00,
2013-05-08 09:22:00,56.5,46.8,30.00,NE,45,0.0,4.9,70,0.00,,,0.00,WUHU21623XXSP,2013-05-08 13:22:00,
2013-05-08 09:27:00,56.5,46.8,30.00,NE,45,0.0,0.0,70,0.00,,,0.00,WUHU21623XXSP,2013-05-08 13:27:00,
2013-05-08 09:32:00,56.3,46.3,30.00,NE,45,0.0,0.0,69,0.00,,,0.00,WUHU21623XXSP,2013-05-08 13:32:00,
2013-05-08 09:37:00,55.9,45.6,30.00,NE,45,0.0,0.0,68,0.00,,,0.00,WUHU21623XXSP,2013-05-08 13:37:00,
2013-05-08 09:42:00,55.6,45.3,30.00,NE,45,0.0,0.0,68,0.00,,,0.00,WUHU21623XXSP,2013-05-08 13:42:00,
2013-05-08 09:48:00,55.2,44.9,30.00,NE,45,0.0,0.0,68,0.00,,,0.00,WUHU21623XXSP,2013-05-08 13:48:00,
2013-05-08 09:53:00,55.0,44.8,30.00,NE,45,0.0,0.0,68,0.00,,,0.00,WUHU21623XXSP,2013-05-08 13:53:00,
2013-05-08 09:59:00,54.7,44.8,30.00,NE,45,0.0,0.0,69,0.00,,,0.00,WUHU21623XXSP,2013-05-08 13:59:00,
2013-05-08 10:06:00,54.7,44.8,30.00,NE,45,0.0,0.0,69,0.00,,,0.00,WUHU21623XXSP,2013-05-08 14:06:00,
2013-05-08 10:12:00,54.7,44.8,30.00,NE,45,0.0,0.0,69,0.00,,,0.00,WUHU21623XXSP,2013-05-08 14:12:00,
2013-05-08 10:17:00,55.0,45.4,30.00,ENE,67,0.0,0.0,70,0.00,,,0.00,WUHU21623XXSP,2013-05-08 14:17:00,
2013-05-08 10:22:00,55.2,45.6,30.01,NE,45,0.0,0.0,70,0.00,,,0.00,WUHU21623XXSP,2013-05-08 14:22:00,
2013-05-08 10:27:00,55.6,45.9,30.00,NE,45,0.0,0.0,70,0.00,,,0.00,WUHU21623XXSP,2013-05-08 14:27:00,
2013-05-08 10:32:00,55.6,45.6,30.00,NE,45,0.0,0.0,69,0.00,,,0.00,WUHU21623XXSP,2013-05-08 14:32:00,
2013-05-08 10:37:00,55.8,45.8,30.00,NE,45,0.0,0.0,69,0.00,,,0.00,WUHU21623XXSP,2013-05-08 14:37:00,
2013-05-08 10:42:00,55.9,45.9,30.01,East,90,0.0,0.0,69,0.00,,,0.00,WUHU21623XXSP,2013-05-08 14:42:00,
2013-05-08 10:47:00,56.1,46.1,30.01,East,90,0.0,0.0,69,0.00,,,0.00,WUHU21623XXSP,2013-05-08 14:47:00,
2013-05-08 10:52:00,56.3,46.0,30.00,ESE,112,0.0,0.0,68,0.00,,,0.00,WUHU21623XXSP,2013-05-08 14:52:00,
2013-05-08 10:57:00,56.8,46.5,29.99,ENE,67,0.0,0.0,68,0.00,,,0.00,WUHU21623XXSP,2013-05-08 14:57:00,
2013-05-08 11:03:00,57.9,46.9,29.99,NE,45,2.3,2.7,66,0.00,,,0.00,WUHU21623XXSP,2013-05-08 15:03:00,
2013-05-08 11:09:00,58.8,47.4,30.00,NNE,22,0.0,2.5,66,0.00,,,0.00,WUHU21623XXSP,2013-05-08 15:09:00,
2013-05-08 11:14:00,60.1,48.0,30.00,NNE,22,2.9,2.9,64,0.00,,,0.00,WUHU21623XXSP,2013-05-08 15:14:00,
2013-05-08 11:19:00,61.0,48.9,30.00,NE,45,0.0,2.9,64,0.00,,,0.00,WUHU21623XXSP,2013-05-08 15:19:00,
2013-05-08 11:25:00,61.7,48.9,30.00,ENE,67,0.0,0.0,62,0.00,,,0.00,WUHU21623XXSP,2013-05-08 15:25:00,
2013-05-08 11:31:00,61.7,48.2,30.00,NNE,22,0.0,0.0,61,0.00,,,0.00,WUHU21623XXSP,2013-05-08 15:31:00,
2013-05-08 11:38:00,61.3,47.4,30.00,ENE,67,0.0,0.0,60,0.00,,,0.00,WUHU21623XXSP,2013-05-08 15:38:00,
2013-05-08 11:43:00,61.2,47.3,30.00,NE,45,0.0,0.0,60,0.00,,,0.00,WUHU21623XXSP,2013-05-08 15:43:00,
2013-05-08 11:49:00,60.8,46.6,30.00,NE,45,0.0,0.0,59,0.00,,,0.00,WUHU21623XXSP,2013-05-08 15:49:00,
2013-05-08 11:54:00,60.4,45.9,30.00,NE,45,0.0,1.6,58,0.00,,,0.00,WUHU21623XXSP,2013-05-08 15:54:00,
2013-05-08 12:00:00,60.4,46.2,30.00,NE,45,2.7,2.7,59,0.00,,,0.00,WUHU21623XXSP,2013-05-08 16:00:00,
2013-05-08 12:05:00,60.6,46.0,30.00,NE,45,0.0,2.7,58,0.00,,,0.00,WUHU21623XXSP,2013-05-08 16:05:00,
2013-05-08 12:10:00,60.6,45.7,29.99,NE,45,0.0,0.0,58,0.00,,,0.00,WUHU21623XXSP,2013-05-08 16:10:00,
2013-05-08 12:15:00,60.6,46.0,29.99,NE,45,0.0,0.0,58,0.00,,,0.00,WUHU21623XXSP,2013-05-08 16:15:00,
2013-05-08 12:20:00,61.0,46.0,29.99,ENE,67,0.0,0.0,58,0.00,,,0.00,WUHU21623XXSP,2013-05-08 16:20:00,
2013-05-08 12:25:00,61.5,46.1,29.99,NE,45,0.0,0.0,57,0.00,,,0.00,WUHU21623XXSP,2013-05-08 16:25:00,
2013-05-08 12:30:00,62.2,46.8,29.99,East,90,0.0,2.5,57,0.00,,,0.00,WUHU21623XXSP,2013-05-08 16:30:00,
2013-05-08 12:35:00,63.1,47.3,29.99,NE,45,4.9,4.9,56,0.00,,,0.00,WUHU21623XXSP,2013-05-08 16:35:00,
2013-05-08 12:40:00,64.0,48.1,29.98,SE,135,0.0,4.9,56,0.00,,,0.00,WUHU21623XXSP,2013-05-08 16:40:00,
2013-05-08 12:45:00,64.9,48.5,29.99,ENE,67,0.0,1.6,55,0.00,,,0.00,WUHU21623XXSP,2013-05-08 16:45:00,
2013-05-08 12:50:00,66.0,48.4,29.99,NE,45,0.0,0.0,53,0.00,,,0.00,WUHU21623XXSP,2013-05-08 16:50:00,
2013-05-08 12:55:00,66.7,47.7,29.98,ENE,67,0.0,0.0,50,0.00,,,0.00,WUHU21623XXSP,2013-05-08 16:55:00,
2013-05-08 13:00:00,67.1,48.1,29.98,ENE,67,3.6,3.6,50,0.00,,,0.00,WUHU21623XXSP,2013-05-08 17:00:00,
2013-05-08 13:05:00,67.6,48.6,29.98,NNE,22,0.0,3.6,50,0.00,,,0.00,WUHU21623XXSP,2013-05-08 17:05:00,
2013-05-08 13:10:00,67.6,48.1,29.98,NE,45,4.0,4.0,50,0.00,,,0.00,WUHU21623XXSP,2013-05-08 17:10:00,
2013-05-08 13:16:00,67.1,47.7,29.98,NNE,22,0.0,4.0,50,0.00,,,0.00,WUHU21623XXSP,2013-05-08 17:16:00,
2013-05-08 13:22:00,66.7,46.8,29.98,NE,45,0.0,0.0,49,0.00,,,0.00,WUHU21623XXSP,2013-05-08 17:22:00,
2013-05-08 13:27:00,66.0,46.6,29.98,NE,45,0.0,0.0,50,0.00,,,0.00,WUHU21623XXSP,2013-05-08 17:27:00,
2013-05-08 13:32:00,65.5,45.7,29.98,NE,45,0.0,0.0,49,0.00,,,0.00,WUHU21623XXSP,2013-05-08 17:32:00,
2013-05-08 13:37:00,65.5,45.7,29.97,ENE,67,0.0,0.0,49,0.00,,,0.00,WUHU21623XXSP,2013-05-08 17:37:00,
2013-05-08 13:42:00,65.8,46.5,29.97,NE,45,0.0,7.6,50,0.00,,,0.00,WUHU21623XXSP,2013-05-08 17:42:00,
2013-05-08 13:47:00,67.3,48.3,29.97,NE,45,6.9,7.6,50,0.00,,,0.00,WUHU21623XXSP,2013-05-08 17:47:00,
2013-05-08 13:52:00,69.1,49.5,29.97,NE,45,5.4,10.5,50,0.00,,,0.00,WUHU21623XXSP,2013-05-08 17:52:00,
2013-05-08 13:57:00,69.6,48.6,29.96,NE,45,3.8,10.5,47,0.00,,,0.00,WUHU21623XXSP,2013-05-08 17:57:00,
2013-05-08 14:02:00,68.9,48.0,29.96,ENE,67,0.0,4.0,47,0.00,,,0.00,WUHU21623XXSP,2013-05-08 18:02:00,
2013-05-08 14:07:00,68.2,46.8,29.96,NE,45,4.8,8.1,46,0.00,,,0.00,WUHU21623XXSP,2013-05-08 18:07:00,
2013-05-08 14:12:00,67.3,45.1,29.96,NNE,22,0.0,8.1,45,0.00,,,0.00,WUHU21623XXSP,2013-05-08 18:12:00,
2013-05-08 14:17:00,66.4,43.3,29.96,NE,45,3.4,3.4,43,0.00,,,0.00,WUHU21623XXSP,2013-05-08 18:17:00,
2013-05-08 14:22:00,65.5,43.4,29.96,NE,45,5.8,5.8,45,0.00,,,0.00,WUHU21623XXSP,2013-05-08 18:22:00,
2013-05-08 14:27:00,64.9,43.3,29.96,NE,45,0.0,5.8,46,0.00,,,0.00,WUHU21623XXSP,2013-05-08 18:27:00,
2013-05-08 14:32:00,65.5,43.9,29.96,NE,45,0.0,0.0,46,0.00,,,0.00,WUHU21623XXSP,2013-05-08 18:32:00,
2013-05-08 14:37:00,66.2,44.1,29.96,NE,45,0.0,4.9,45,0.00,,,0.00,WUHU21623XXSP,2013-05-08 18:37:00,
2013-05-08 14:42:00,67.1,44.9,29.96,WSW,247,0.0,4.9,45,0.00,,,0.00,WUHU21623XXSP,2013-05-08 18:42:00,
2013-05-08 14:47:00,68.5,45.7,29.95,WSW,247,0.0,5.4,44,0.00,,,0.00,WUHU21623XXSP,2013-05-08 18:47:00,
2013-05-08 14:52:00,70.2,45.7,29.95,NE,45,4.5,6.9,42,0.00,,,0.00,WUHU21623XXSP,2013-05-08 18:52:00,
2013-05-08 14:57:00,70.7,45.6,29.94,NE,45,0.0,6.9,41,0.00,,,0.00,WUHU21623XXSP,2013-05-08 18:57:00,
2013-05-08 15:02:00,70.9,45.8,29.94,WSW,247,2.1,6.3,41,0.00,,,0.00,WUHU21623XXSP,2013-05-08 19:02:00,
2013-05-08 15:07:00,71.4,45.7,29.94,North,0,0.0,6.0,40,0.00,,,0.00,WUHU21623XXSP,2013-05-08 19:07:00,
2013-05-08 15:12:00,72.0,45.1,29.94,WSW,251,5.9,8.9,38,0.00,,,0.00,WUHU21623XXSP,2013-05-08 19:12:00,
2013-05-08 15:17:00,72.3,45.4,29.94,WSW,247,1.1,8.9,38,0.00,,,0.00,WUHU21623XXSP,2013-05-08 19:17:00,
2013-05-08 15:22:00,72.7,46.3,29.94,NE,45,0.0,1.1,39,0.00,,,0.00,WUHU21623XXSP,2013-05-08 19:22:00,
2013-05-08 15:27:00,72.7,45.2,29.94,NE,41,4.4,9.8,38,0.00,,,0.00,WUHU21623XXSP,2013-05-08 19:27:00,
2013-05-08 15:32:00,71.8,43.8,29.94,NE,45,0.0,9.8,37,0.00,,,0.00,WUHU21623XXSP,2013-05-08 19:32:00,
2013-05-08 15:37:00,70.9,43.0,29.94,NNE,22,0.9,7.8,37,0.00,,,0.00,WUHU21623XXSP,2013-05-08 19:37:00,
2013-05-08 15:42:00,70.0,42.8,29.93,NE,48,2.3,4.9,38,0.00,,,0.00,WUHU21623XXSP,2013-05-08 19:42:00,
2013-05-08 15:47:00,68.9,42.4,29.93,NE,45,1.1,4.9,38,0.00,,,0.00,WUHU21623XXSP,2013-05-08 19:47:00,
2013-05-08 15:52:00,68.4,42.5,29.93,ENE,67,2.2,3.1,39,0.00,,,0.00,WUHU21623XXSP,2013-05-08 19:52:00,
2013-05-08 15:57:00,68.2,43.4,29.93,WSW,247,4.3,4.3,41,0.00,,,0.00,WUHU21623XXSP,2013-05-08 19:57:00,
2013-05-08 16:02:00,68.7,43.8,29.93,WSW,247,3.7,6.9,41,0.00,,,0.00,WUHU21623XXSP,2013-05-08 20:02:00,
2013-05-08 16:07:00,69.6,44.6,29.92,WSW,247,4.4,14.1,41,0.00,,,0.00,WUHU21623XXSP,2013-05-08 20:07:00,
2013-05-08 16:12:00,70.5,46.0,29.92,East,90,2.0,14.1,42,0.00,,,0.00,WUHU21623XXSP,2013-05-08 20:12:00,
2013-05-08 16:17:00,71.2,46.1,29.92,WSW,247,6.7,6.7,41,0.00,,,0.00,WUHU21623XXSP,2013-05-08 20:17:00,
2013-05-08 16:22:00,72.7,46.3,29.92,WSW,247,6.5,8.3,39,0.00,,,0.00,WUHU21623XXSP,2013-05-08 20:22:00,
2013-05-08 16:28:00,74.3,47.8,29.92,WSW,248,5.8,10.7,39,0.00,,,0.00,WUHU21623XXSP,2013-05-08 20:28:00,
2013-05-08 16:33:00,74.8,47.6,29.92,WSW,247,0.0,10.7,38,0.00,,,0.00,WUHU21623XXSP,2013-05-08 20:33:00,
2013-05-08 16:38:00,74.7,46.4,29.92,WSW,247,3.3,6.7,37,0.00,,,0.00,WUHU21623XXSP,2013-05-08 20:38:00,
2013-05-08 16:43:00,75.4,48.2,29.92,WSW,247,1.2,5.4,38,0.00,,,0.00,WUHU21623XXSP,2013-05-08 20:43:00,
2013-05-08 16:48:00,75.0,47.8,29.92,NE,45,4.2,5.8,38,0.00,,,0.00,WUHU21623XXSP,2013-05-08 20:48:00,
2013-05-08 16:53:00,73.6,47.7,29.92,NE,45,2.5,5.8,40,0.00,,,0.00,WUHU21623XXSP,2013-05-08 20:53:00,
2013-05-08 16:58:00,71.6,45.9,29.92,NE,45,6.0,11.4,40,0.00,,,0.00,WUHU21623XXSP,2013-05-08 20:58:00,
2013-05-08 17:03:00,70.0,45.5,29.92,NE,45,0.0,11.4,42,0.00,,,0.00,WUHU21623XXSP,2013-05-08 21:03:00,
2013-05-08 17:08:00,68.4,45.1,29.92,NE,45,0.0,4.0,43,0.00,,,0.00,WUHU21623XXSP,2013-05-08 21:08:00,
2013-05-08 17:13:00,67.3,44.6,29.92,NE,54,4.1,6.5,44,0.00,,,0.00,WUHU21623XXSP,2013-05-08 21:13:00,
2013-05-08 17:18:00,66.7,44.5,29.92,NE,45,5.4,6.5,45,0.00,,,0.00,WUHU21623XXSP,2013-05-08 21:18:00,
2013-05-08 17:23:00,66.4,44.7,29.92,NE,45,1.3,5.4,46,0.00,,,0.00,WUHU21623XXSP,2013-05-08 21:23:00,
2013-05-08 17:28:00,66.6,44.4,29.92,NE,42,4.3,7.2,45,0.00,,,0.00,WUHU21623XXSP,2013-05-08 21:28:00,
2013-05-08 17:33:00,66.7,44.0,29.92,NNE,16,4.5,7.8,44,0.00,,,0.00,WUHU21623XXSP,2013-05-08 21:33:00,
2013-05-08 17:38:00,67.8,45.5,29.92,NE,45,1.7,7.8,45,0.00,,,0.00,WUHU21623XXSP,2013-05-08 21:38:00,
2013-05-08 17:43:00,68.2,44.9,29.92,NE,45,4.0,9.6,43,0.00,,,0.00,WUHU21623XXSP,2013-05-08 21:43:00,
2013-05-08 17:48:00,68.0,44.2,29.92,NE,47,3.7,9.6,42,0.00,,,0.00,WUHU21623XXSP,2013-05-08 21:48:00,
2013-05-08 17:55:00,67.3,44.1,29.92,NE,45,0.9,6.5,43,0.00,,,0.00,WUHU21623XXSP,2013-05-08 21:55:00,
2013-05-08 18:01:00,66.4,43.3,29.92,NE,45,0.0,1.1,43,0.00,,,0.00,WUHU21623XXSP,2013-05-08 22:01:00,
2013-05-08 18:06:00,66.0,43.4,29.91,NNE,22,2.2,2.2,44,0.00,,,0.00,WUHU21623XXSP,2013-05-08 22:06:00,
2013-05-08 18:12:00,65.8,43.2,29.92,NE,45,0.0,2.2,44,0.00,,,0.00,WUHU21623XXSP,2013-05-08 22:12:00,
2013-05-08 18:17:00,65.3,42.8,29.92,ENE,64,3.7,6.5,44,0.00,,,0.00,WUHU21623XXSP,2013-05-08 22:17:00,
2013-05-08 18:23:00,65.1,43.1,29.91,ENE,67,0.0,6.5,45,0.00,,,0.00,WUHU21623XXSP,2013-05-08 22:23:00,
2013-05-08 18:29:00,64.6,43.1,29.92,NE,45,0.0,1.3,46,0.00,,,0.00,WUHU21623XXSP,2013-05-08 22:29:00,
2013-05-08 18:34:00,64.0,43.0,29.92,NE,45,0.0,1.3,46,0.00,,,0.00,WUHU21623XXSP,2013-05-08 22:34:00,
2013-05-08 18:39:00,63.7,42.7,29.92,NNE,22,0.0,0.0,46,0.00,,,0.00,WUHU21623XXSP,2013-05-08 22:39:00,
2013-05-08 18:44:00,63.3,42.8,29.93,ENE,67,0.0,0.0,47,0.00,,,0.00,WUHU21623XXSP,2013-05-08 22:44:00,
2013-05-08 18:49:00,63.0,43.0,29.93,NE,45,0.0,0.0,48,0.00,,,0.00,WUHU21623XXSP,2013-05-08 22:49:00,
2013-05-08 18:54:00,62.4,42.4,29.93,NE,45,0.0,0.0,48,0.00,,,0.00,WUHU21623XXSP,2013-05-08 22:54:00,
2013-05-08 18:59:00,62.2,42.7,29.93,NE,45,0.0,0.0,49,0.00,,,0.00,WUHU21623XXSP,2013-05-08 22:59:00,
2013-05-08 19:04:00,61.9,42.9,29.93,NE,45,0.0,0.0,50,0.00,,,0.00,WUHU21623XXSP,2013-05-08 23:04:00,
2013-05-08 19:09:00,61.5,42.5,29.93,SE,135,0.0,0.0,50,0.00,,,0.00,WUHU21623XXSP,2013-05-08 23:09:00,
2013-05-08 19:14:00,61.3,41.9,29.93,ESE,112,0.0,0.0,49,0.00,,,0.00,WUHU21623XXSP,2013-05-08 23:14:00,
2013-05-08 19:19:00,61.2,41.8,29.93,ESE,112,0.0,0.0,49,0.00,,,0.00,WUHU21623XXSP,2013-05-08 23:19:00,
2013-05-08 19:24:00,61.0,42.0,29.93,ESE,112,0.0,0.0,50,0.00,,,0.00,WUHU21623XXSP,2013-05-08 23:24:00,
2013-05-08 19:29:00,61.0,42.5,29.93,ESE,112,0.0,0.0,50,0.00,,,0.00,WUHU21623XXSP,2013-05-08 23:29:00,
2013-05-08 19:35:00,60.6,42.1,29.93,ESE,112,0.0,0.0,50,0.00,,,0.00,WUHU21623XXSP,2013-05-08 23:35:00,
2013-05-08 19:40:00,60.4,41.9,29.93,ESE,112,0.0,0.0,50,0.00,,,0.00,WUHU21623XXSP,2013-05-08 23:40:00,
2013-05-08 19:45:00,60.1,42.0,29.93,SSW,202,0.0,0.0,51,0.00,,,0.00,WUHU21623XXSP,2013-05-08 23:45:00,
2013-05-08 19:51:00,59.5,41.9,29.93,SSW,202,0.0,0.0,52,0.00,,,0.00,WUHU21623XXSP,2013-05-08 23:51:00,
2013-05-08 19:55:00,59.0,41.4,29.94,SSW,202,0.0,0.0,52,0.00,,,0.00,WUHU21623XXSP,2013-05-08 23:55:00,
2013-05-08 20:01:00,58.8,41.2,29.94,SSW,202,0.0,0.0,52,0.00,,,0.00,WUHU21623XXSP,2013-05-09 00:01:00,
2013-05-08 20:06:00,58.5,41.0,29.94,SSW,202,0.0,0.0,52,0.00,,,0.00,WUHU21623XXSP,2013-05-09 00:06:00,
2013-05-08 20:11:00,58.1,40.2,29.94,SSW,202,0.0,0.0,51,0.00,,,0.00,WUHU21623XXSP,2013-05-09 00:11:00,
2013-05-08 20:15:00,57.7,39.4,29.94,SSW,202,0.0,0.0,50,0.00,,,0.00,WUHU21623XXSP,2013-05-09 00:15:00,
2013-05-08 20:21:00,57.6,39.3,29.93,SSW,202,0.0,0.0,50,0.00,,,0.00,WUHU21623XXSP,2013-05-09 00:21:00,
2013-05-08 20:26:00,57.4,39.1,29.93,SSW,202,0.0,0.0,50,0.00,,,0.00,WUHU21623XXSP,2013-05-09 00:26:00,
2013-05-08 20:31:00,57.0,38.3,29.93,SSW,202,0.0,0.0,50,0.00,,,0.00,WUHU21623XXSP,2013-05-09 00:31:00,
2013-05-08 20:36:00,56.8,39.0,29.93,SSW,202,0.0,0.0,51,0.00,,,0.00,WUHU21623XXSP,2013-05-09 00:36:00,
2013-05-08 20:41:00,56.7,39.7,29.94,SSW,202,0.0,0.0,53,0.00,,,0.00,WUHU21623XXSP,2013-05-09 00:41:00,
2013-05-08 20:46:00,56.1,39.5,29.95,East,90,0.0,0.0,54,0.00,,,0.00,WUHU21623XXSP,2013-05-09 00:46:00,
2013-05-08 20:51:00,55.6,39.8,29.95,ENE,67,0.0,0.0,55,0.00,,,0.00,WUHU21623XXSP,2013-05-09 00:51:00,
2013-05-08 20:56:00,55.0,40.0,29.95,NE,45,0.0,0.0,57,0.00,,,0.00,WUHU21623XXSP,2013-05-09 00:56:00,
2013-05-08 21:02:00,54.1,40.3,29.94,NE,45,0.0,0.0,59,0.00,,,0.00,WUHU21623XXSP,2013-05-09 01:02:00,
2013-05-08 21:07:00,53.8,40.7,29.94,SE,135,0.0,0.0,61,0.00,,,0.00,WUHU21623XXSP,2013-05-09 01:07:00,
2013-05-08 21:12:00,53.2,40.5,29.95,WSW,247,0.0,0.0,62,0.00,,,0.00,WUHU21623XXSP,2013-05-09 01:12:00,
2013-05-08 21:17:00,52.7,40.3,29.96,WSW,247,0.0,0.0,62,0.00,,,0.00,WUHU21623XXSP,2013-05-09 01:17:00,
2013-05-08 21:22:00,52.3,39.9,29.96,West,270,0.0,0.0,62,0.00,,,0.00,WUHU21623XXSP,2013-05-09 01:22:00,
2013-05-08 21:27:00,52.0,40.0,29.96,WSW,247,0.0,0.0,63,0.00,,,0.00,WUHU21623XXSP,2013-05-09 01:27:00,
2013-05-08 21:32:00,51.8,40.1,29.96,WSW,247,0.0,0.0,64,0.00,,,0.00,WUHU21623XXSP,2013-05-09 01:32:00,
2013-05-08 21:37:00,51.6,40.3,29.95,WSW,247,0.0,0.0,65,0.00,,,0.00,WUHU21623XXSP,2013-05-09 01:37:00,
2013-05-08 21:42:00,51.6,40.3,29.96,WSW,247,0.0,0.0,65,0.00,,,0.00,WUHU21623XXSP,2013-05-09 01:42:00,
2013-05-08 21:47:00,51.4,40.4,29.96,WSW,247,0.0,0.0,66,0.00,,,0.00,WUHU21623XXSP,2013-05-09 01:47:00,
2013-05-08 21:52:00,51.4,40.4,29.96,SW,225,0.0,0.0,66,0.00,,,0.00,WUHU21623XXSP,2013-05-09 01:52:00,
2013-05-08 21:57:00,51.4,40.4,29.96,SW,225,0.0,0.0,66,0.00,,,0.00,WUHU21623XXSP,2013-05-09 01:57:00,
2013-05-08 22:02:00,51.4,40.7,29.95,SW,225,0.0,0.0,66,0.00,,,0.00,WUHU21623XXSP,2013-05-09 02:02:00,
2013-05-08 22:07:00,51.4,40.7,29.95,SW,225,0.0,0.0,66,0.00,,,0.00,WUHU21623XXSP,2013-05-09 02:07:00,
2013-05-08 22:12:00,51.3,40.6,29.95,NW,315,0.0,0.0,66,0.00,,,0.00,WUHU21623XXSP,2013-05-09 02:12:00,
2013-05-08 22:17:00,51.3,40.9,29.95,NW,315,0.0,0.0,67,0.00,,,0.00,WUHU21623XXSP,2013-05-09 02:17:00,
2013-05-08 22:22:00,51.1,40.7,29.95,SW,225,0.0,1.6,67,0.00,,,0.00,WUHU21623XXSP,2013-05-09 02:22:00,
2013-05-08 22:28:00,51.1,40.7,29.95,SSW,202,0.0,1.6,67,0.00,,,0.00,WUHU21623XXSP,2013-05-09 02:28:00,
2013-05-08 22:33:00,51.1,40.7,29.95,SSW,202,0.0,0.0,67,0.00,,,0.00,WUHU21623XXSP,2013-05-09 02:33:00,
2013-05-08 22:40:00,50.7,40.6,29.95,SSW,202,0.0,0.0,68,0.00,,,0.00,WUHU21623XXSP,2013-05-09 02:40:00,
2013-05-08 22:45:00,50.7,40.6,29.95,SE,135,0.0,0.0,68,0.00,,,0.00,WUHU21623XXSP,2013-05-09 02:45:00,
2013-05-08 22:50:00,50.5,40.4,29.95,SSE,157,0.0,0.0,68,0.00,,,0.00,WUHU21623XXSP,2013-05-09 02:50:00,
2013-05-08 22:55:00,50.4,40.3,29.95,SSE,157,0.0,0.0,68,0.00,,,0.00,WUHU21623XXSP,2013-05-09 02:55:00,
2013-05-08 23:00:00,50.2,40.2,29.94,SSE,157,0.0,0.0,68,0.00,,,0.00,WUHU21623XXSP,2013-05-09 03:00:00,
2013-05-08 23:05:00,50.0,40.0,29.95,SSE,157,0.0,0.0,68,0.00,,,0.00,WUHU21623XXSP,2013-05-09 03:05:00,
2013-05-08 23:10:00,49.8,39.8,29.95,SE,135,0.0,0.0,68,0.00,,,0.00,WUHU21623XXSP,2013-05-09 03:10:00,
2013-05-08 23:15:00,49.8,39.8,29.94,SE,135,0.0,0.0,68,0.00,,,0.00,WUHU21623XXSP,2013-05-09 03:15:00,
2013-05-08 23:20:00,49.8,39.8,29.95,SE,135,0.0,0.0,68,0.00,,,0.00,WUHU21623XXSP,2013-05-09 03:20:00,
2013-05-08 23:25:00,49.8,40.1,29.94,SE,135,0.0,0.0,69,0.00,,,0.00,WUHU21623XXSP,2013-05-09 03:25:00,
2013-05-08 23:30:00,49.8,40.1,29.94,SE,135,0.0,0.0,69,0.00,,,0.00,WUHU21623XXSP,2013-05-09 03:30:00,
2013-05-08 23:35:00,50.0,40.3,29.94,SE,135,0.0,0.0,69,0.00,,,0.00,WUHU21623XXSP,2013-05-09 03:35:00,
2013-05-08 23:40:00,50.2,40.5,29.94,SE,135,0.0,0.0,69,0.00,,,0.00,WUHU21623XXSP,2013-05-09 03:40:00,
2013-05-08 23:45:00,50.4,40.6,29.94,SE,135,0.0,0.0,69,0.00,,,0.00,WUHU21623XXSP,2013-05-09 03:45:00,
2013-05-08 23:50:00,50.5,40.7,29.94,SE,135,0.0,0.0,69,0.00,,,0.00,WUHU21623XXSP,2013-05-09 03:50:00,
2013-05-08 23:56:00,50.5,40.7,29.94,SE,135,0.0,0.0,69,0.00,,,0.00,WUHU21623XXSP,2013-05-09 03:56:00,